[sarex] 2 Line ISS Keps 10-9

Dave Larsen PhD doc at volcano.net
Mon Oct 9 04:00:00 PDT 2006


ISS
1 25544U 98067A   06282.31203318  .00018574  00000-0  11656-3 0  8232
2 25544 051.6363 319.5279 0013233 075.8149 027.4861 15.76720193451164


More information about the SAREX mailing list